SB KEPS @ AMSAT $ORB13108.N 2Line Orbital Elements 13108.AMSAT
HR AMSAT ORBITAL ELEMENTS FOR AMATEUR SATELLITES IN NASA FORMAT FROM WA5QGD FORT WORTH,TX April 18, 2013 BID: ORB13108.N
DECODE 2-LINE ELSETS WITH THE FOLLOWING KEY: 1 AAAAAU 00 0 0 BBBBB.BBBBBBBB .CCCCCCCC 00000-0 00000-0 0 DDDZ 2 AAAAA EEE.EEEE FFF.FFFF GGGGGGG HHH.HHHH III.IIII JJ.JJJJJJJJKKKKKZ KEY: A-CATALOGNUM B-EPOCHTIME C-DECAY D-ELSETNUM E-INCLINATION F-RAAN G-ECCENTRICITY H-ARGPERIGEE I-MNANOM J-MNMOTION K-ORBITNUM Z-CHECKSUM
TO ALL RADIO AMATEURS BT
AO-07 1 07530U 74089B 13107.85599324 -.00000023 00000-0 12277-3 0 6580 2 07530 101.4279 099.5603 0012251 048.0518 014.8098 12.53595622758224 FO-29 1 24278U 96046B 13107.80669990 -.00000041 00000-0 -26421-5 0 940 2 24278 098.5606 174.4290 0349705 320.7145 151.6163 13.52998305823142 SO-33 1 25509U 98061B 13107.28554588 .00000599 00000-0 10720-3 0 4768 2 25509 031.4330 052.4257 0351222 344.7456 173.5223 14.29009837756172 RS-22 1 27939U 03042A 13108.53287353 .00000496 00000-0 10217-3 0 3355 2 27939 097.7991 299.4981 0013938 020.7943 339.3808 14.64393517510569 VO-52 1 28650U 05017B 13108.59326242 .00001088 00000-0 13678-3 0 3999 2 28650 097.5713 130.2516 0027675 116.5626 029.5019 14.83721511430249 HO-68 1 36122U 09072B 13108.61245215 -.00000044 00000-0 00000 0 0 4714 2 36122 100.3129 167.1566 0007677 128.8276 231.3521 13.16303303160574 UO-11 1 14781U 84021B 13108.71455568 .00000433 00000-0 62854-4 0 1553 2 14781 097.9081 170.8617 0010326 120.7035 239.5196 14.80825829565139 AO-16 1 20439U 90005D 13108.83796293 .00000074 00000-0 43546-4 0 7256 2 20439 098.4678 050.2549 0010221 340.2725 078.6731 14.32159201213743 LO-19 1 20442U 90005G 13106.92548039 .00000078 00000-0 44470-4 0 6576 2 20442 098.4361 050.3706 0011112 335.8191 064.1639 14.32371064213660 AO-27 1 22825U 93061C 13108.78121986 .00000055 00000-0 38596-4 0 3622 2 22825 098.6143 053.4487 0009655 102.8776 313.6694 14.29550578 20144 IO-26 1 22826U 93061D 13107.87845326 .00000074 00000-0 45705-4 0 1183 2 22826 098.6082 052.8551 0010162 099.3294 293.9430 14.29833117 20143 GO-32 1 25397U 98043D 13108.78914876 .00000015 00000-0 25043-4 0 493 2 25397 098.4091 079.1502 0002477 106.9264 316.1487 14.23333378767491 NO-44 1 26931U 01043C 13107.81064316 .00000068 00000-0 58574-4 0 3070 2 26931 067.0532 055.1477 0006831 286.6259 105.3265 14.29908958602792 SO-50 1 27607U 02058C 13108.02340866 .00000388 00000-0 80620-4 0 438 2 27607 064.5566 087.2831 0052641 182.1208 215.6154 14.72857753554855 CO-55 1 27844U 03031E 13107.60279262 .00000227 00000-0 12418-3 0 6276 2 27844 098.7017 117.5561 0010721 068.6587 078.6873 14.21191078508125 CO-57 1 27848U 03031J 13107.99573718 .00000193 00000-0 10944-3 0 5728 2 27848 098.7104 117.4239 0010692 072.8489 340.7253 14.20919986508111 AO-51 1 28375U 04025K 13108.41683258 .00000097 00000-0 41770-4 0 5351 2 28375 098.1957 066.2953 0083424 196.0494 310.8364 14.41096106462729 CP3 1 31129U 07012N 13107.95565441 .00000485 00000-0 11952-3 0 4394 2 31129 097.8953 104.0083 0098979 254.4594 157.8007 14.53572528318248 CO-65 1 32785U 08021C 13108.77348122 .00000936 00000-0 11931-3 0 6086 2 32785 097.7569 167.9899 0015720 139.5655 336.3326 14.83730838269062 PRISM 1 33493U 09002B 13108.27985984 .00003952 00000-0 46137-3 0 7225 2 33493 098.2102 263.2746 0018744 030.8835 329.3428 14.85653240229021 SOHLA-1 1 33496U 09002E 13107.85086100 .00000328 00000-0 62649-4 0 227 2 33496 098.1273 224.0539 0007601 146.9210 359.2012 14.70241742227004 SO-67 1 35870U 09049F 13108.79970131 .00005471 00000-0 21221-3 0 9803 2 35870 097.1972 139.6781 0002764 132.1879 347.8984 15.26511065199199 TISAT-1 1 36799U 10035E 13108.75154443 .00002312 00000-0 29033-3 0 9953 2 36799 098.0350 193.0956 0013360 259.9784 099.9895 14.83080259149767 STUDSAT 1 36801U 10035G 13108.81625468 .00003598 00000-0 40181-3 0 6168 2 36801 098.0449 195.7808 0011282 236.7944 235.2895 14.87593736149901 ALMASAT-1 1 38078U 12006B 13108.80539308 .00015488 00000-0 38814-3 0 1898 2 38078 069.4838 338.4956 0712551 222.8721 131.4694 14.21263000 60798 XATCOBEO 1 38082U 12006F 13108.70761111 .00049633 34410-5 10041-2 0 875 2 38082 069.4815 320.0118 0617434 212.7138 143.4298 14.45986361 61296 NOAA-10 1 16969U 86073A 13107.13776120 .00000082 00000-0 50694-4 0 3176 2 16969 098.5503 136.2916 0013185 068.5847 323.3246 14.27628002383231 NOAA-11 1 19531U 88089A 13107.28135855 .00000046 00000-0 45775-4 0 3201 2 19531 098.7114 191.7467 0012225 078.9033 313.6270 14.15009503267519 NOAA-12 1 21263U 91032A 13107.48449947 .00000035 00000-0 33366-4 0 7902 2 21263 098.7015 133.3386 0014228 041.2012 097.2693 14.25556412139903 MET-3/5 1 21655U 91056A 13108.08361397 .00000446 00000-0 11268-2 0 6687 2 21655 082.5534 296.7648 0012176 279.9519 080.0229 13.17041963 42023 MET-2/21 1 22782U 93055A 13107.75803094 .00000036 00000-0 18677-4 0 7160 2 22782 082.5481 150.8699 0022427 022.6303 114.4755 13.83701906991286 OKEAN-4 1 23317U 94066A 13108.49013428 .00000871 00000-0 10049-3 0 1945 2 23317 082.5366 105.6634 0022579 066.5988 094.3656 14.84353399 80 NOAA-14 1 23455U 94089A 13107.35213707 .00000049 00000-0 48745-4 0 2751 2 23455 098.8030 192.7096 0010060 165.5901 239.4076 14.13900993943777 NOAA-15 1 25338U 98030A 13107.50772117 .00000121 00000-0 70192-4 0 6964 2 25338 098.7215 098.0542 0009555 307.2494 198.9353 14.25200966776199 RESURS 1 25394U 98043A 13107.80571699 .00000012 00000-0 22846-4 0 3537 2 25394 098.3565 086.5561 0002505 083.7839 337.4193 14.24327047767769 FENGYUN1 1 25730U 99025A 13108.87308303 .00001131 00000-0 65952-3 0 8532 2 25730 098.8750 069.1296 0023018 211.0580 202.7790 14.10383629717683 OKEAN-0 1 25860U 99039A 13107.85056190 .00000408 00000-0 68791-4 0 9219 2 25860 097.9846 071.1327 0001274 074.4865 318.5194 14.74544239739468 NOAA-16 1 26536U 00055A 13107.36439828 .00000062 00000-0 57779-4 0 1727 2 26536 099.0488 159.5094 0009543 308.8938 111.9308 14.12861132647981 NOAA-17 1 27453U 02032A 13107.47437271 .00000110 00000-0 65135-4 0 958 2 27453 098.3150 124.7687 0010972 349.6221 172.7921 14.24580734562077 NOAA-18 1 28654U 05018A 13107.49993308 .00000074 00000-0 65728-4 0 5782 2 28654 099.0940 074.8635 0014584 023.9046 124.3647 14.11799096407495 NOAA-19 1 33591U 09005A 13107.43459443 .00000013 00000-0 31657-4 0 7643 2 33591 098.8998 049.9918 0013184 239.0371 269.8390 14.11486854215924 HUBBLE 1 20580U 90037B 13107.72940891 .00001584 00000-0 10118-3 0 2193 2 20580 028.4702 309.1211 0003456 063.1635 029.3970 15.03482263 60582 ISS 1 25544U 98067A 13108.15562633 .00008927 00000-0 15103-3 0 6305 2 25544 051.6481 046.2255 0010597 153.3089 352.6323 15.52345674825384 CO-58 1 28895U 05043F 13107.54241172 .00000490 00000-0 10874-3 0 4533 2 28895 097.8781 325.8072 0016232 272.3973 087.5370 14.61039082398080 FALCON 1 30776U 07006E 13107.52715125 .00003656 00000-0 22213-3 0 5939 2 30776 035.4303 214.3756 0001519 167.7222 258.8924 15.10122328336245 MAST 1 31126U 07012K 13107.55768002 .00000342 00000-0 86217-4 0 7319 2 31126 097.8795 106.9492 0092246 241.1917 266.7071 14.54508265318505 CAPE1 1 31130U 07012P 13106.50059898 .00000531 00000-0 13009-3 0 7402 2 31130 097.8959 102.2836 0099379 259.9411 099.0562 14.53404489317810 COMPASS 1 32787U 08021E 13108.74374269 .00000996 00000-0 12210-3 0 5992 2 32787 097.7578 168.8408 0016155 136.4125 338.1964 14.85232767269148 AAUSAT2 1 32788U 08021F 13108.14778038 .00001817 00000-0 21536-3 0 5858 2 32788 097.7585 168.8412 0015664 138.0893 248.3784 14.85665646269098 DO-64 1 32789U 08021G 13108.76379323 .00002183 00000-0 24288-3 0 6148 2 32789 097.7735 172.8758 0015319 130.7367 017.5374 14.88064289269287 CO-66 1 32791U 08021J 13108.18720934 .00000766 00000-0 97100-4 0 5828 2 32791 097.7584 167.7373 0016558 139.0742 254.5691 14.84421871268973 RS-30 1 32953U 08025A 13108.49985085 .00000010 00000-0 00000 0 0 7772 2 32953 082.4976 105.3086 0019202 007.6124 352.5241 12.43033098222491 METEOR-M 1 35865U 09049A 13108.76408937 -.00000008 00000-0 15666-4 0 3773 2 35865 098.6083 162.6291 0001571 246.8504 113.2507 14.21883382186029 RS-38 1 35869U 09049E 13108.73710540 .00000070 00000-0 51087-4 0 3494 2 35869 098.6032 162.5344 0003756 245.9821 114.0968 14.22121911186040 JUGNU 1 37839U 11058B 13108.66161826 .00000391 00000-0 67593-4 0 3692 2 37839 019.9624 307.4589 0019089 347.5534 076.2653 14.12142541 78477 SRMSAT 1 37841U 11058D 13105.96004434 .00000380 00000-0 64681-4 0 3701 2 37841 019.9730 334.6506 0011813 272.7858 206.5652 14.10214500 77978 RAX-2 1 37853U 11061D 13108.08704682 .00005337 00000-0 40936-3 0 4788 2 37853 101.7181 293.8964 0237588 199.6645 309.0989 14.82910908 79535 AUBIESAT 1 37854U 11061E 13106.04872914 .00006227 00000-0 46684-3 0 4737 2 37854 101.7212 291.6561 0237760 204.3206 303.6771 14.83532309 79242 HRBE 1 37855U 11061F 13107.50222457 .00005760 00000-0 43468-3 0 4717 2 37855 101.7215 293.5891 0238600 200.5292 194.4470 14.83252178 79458 RS-39 1 38051U 11062C 13108.69974774 .00013815 00000-0 46708-3 0 3601 2 38051 051.6342 137.3245 0013235 049.6791 057.4414 15.30829414 68663 E-STAR 1 38079U 12006C 13108.64499713 .00034439 32137-5 73000-3 0 507 2 38079 069.4822 324.8175 0647396 215.4302 140.2112 14.38845795 61150 GOLIAT 1 38085U 12006J 13108.77847655 .00032588 31850-5 69392-3 0 9782 2 38085 069.4851 326.2348 0655185 216.1504 139.3525 14.37126919 61127 HORYU-2 1 38340U 12025D 13108.85167217 .00001341 00000-0 22774-3 0 4661 2 38340 098.2122 056.0144 0013816 081.6779 278.5944 14.70778513 49398 RS-40 1 38736U 12041D 13108.66505011 .00000010 00000-0 00000 0 0 2456 2 38736 082.4793 192.2266 0022998 097.4412 262.9280 12.42877321 32851 PROITERES 1 38756U 12047B 13108.99628269 .00000690 00000-0 11268-3 0 6990 2 38756 098.2560 184.9468 0011643 298.5006 061.5038 14.74149579 32678 RAIKO 1 38852U 98067CN 13107.93569444 .00064781 00000-0 57142-3 0 1992 2 38852 051.6409 037.5319 0015253 137.9511 222.2659 15.67939828 30384 FITSAT 1 1 38853U 98067CP 13107.85867823 .00094773 00000-0 68212-3 0 2003 2 38853 051.6426 035.5381 0012650 149.8273 210.3457 15.72709848 30451 TechEdSat 1 38854U 98067CQ 13108.73343754 .00416188 78030-4 11847-2 0 2432 2 38854 051.6330 024.0001 0011318 167.8053 192.3592 15.92638908 30688 F 1 1 38855U 98067CR 13108.62294588 .00326261 49841-4 11231-2 0 2326 2 38855 051.6360 025.5120 0010251 158.4085 201.7432 15.89000935 30559 WeWish 1 38856U 98067CS 13069.98095549 .16701328 12537-4 10063-2 0 2487 2 38856 051.6166 215.0521 0008325 316.0438 044.8765 16.41348316 24586 /EX